Regional Weather Roundup
Issued by NWS

Home | Current Version | Previous Version | Text Only | Print | Product List | Glossary On
Versions: 1 2 3 4 5 6 7 8 9 10 11 12 13 14 15 16 17 18 19 20 21 22 23 24 25 26 27 28 29 30 31 32 33 34 35 36 37 38 39 40 41 42 43 44 45 46 47 48 49 50
000
ASUS43 KMPX 301910
RWRMN
WEATHER ROUNDUP FOR MINNESOTA
NATIONAL WEATHER SERVICE TWIN CITIES/CHANHASSEN MN
200 PM CDT TUE SEP 30 2014


NOTE: "FAIR" INDICATES FEW OR NO CLOUDS BELOW 12,000 FEET WITH NO
SIGNIFICANT WEATHER AND/OR OBSTRUCTIONS TO VISIBILITY. N/A MEANS
CURRENT SKY AND/OR WEATHER CONDITIONS ARE NOT AVAILABLE.

MNZ060>063-068>070-302000-
   Twin Cities Metro

CITY           SKY/WX    TMP DP  RH WIND       PRES   REMARKS
TWIN CITIES    PTSUNNY   55  42  61 E13       29.98F
ST PAUL        PTSUNNY   55  43  63 E13       30.00F
CRYSTAL        PTSUNNY   56  42  59 SE10G16   29.97F
BLAINE         PTSUNNY   55  45  67 E12       29.98
LAKEVILLE      PTSUNNY   54  43  66 E12       29.97F
EDEN PRAIRIE   PTSUNNY   54  44  69 E14       29.95F
SOUTH ST PAUL  PTSUNNY   55  42  60 E9        29.99F
LAKE ELMO      FAIR      54  43  66 SE9       30.01F
$$
MNZ001>005-007-008-013>017-022>024-027-028-302000-
   Northwest Minnesota

CITY           SKY/WX    TMP DP  RH WIND       PRES   REMARKS
BEMIDJI        SUNNY     52  41  66 SE18G24   29.92F
HALLOCK        SUNNY     61  46  59 SE16G22   29.82F
ROSEAU         SUNNY     59  45  58 SE14G20   29.89F
WARROAD        SUNNY     55  46  71 E15       29.91F
THIEF RVR FALL MOSUNNY   57  43  58 SE17      29.84F
CROOKSTON      MOSUNNY   59  43  55 SE18      29.83F
FOSSTON        MOSUNNY   57  41  54 SE13G20   29.86F
DETROIT LAKES  PTSUNNY   54  43  66 SE17G23   29.84F
PARK RAPIDS    PTSUNNY   52  41  66 SE20G25   29.91F
MAHNOMEN       CLOUDY    56  42  59 SE16G23   29.84F
$$
MNZ006-009>011-018-025>026-302000-
   North Central Minnesota

CITY           SKY/WX    TMP DP  RH WIND       PRES   REMARKS
BAUDETTE       SUNNY     56  43  61 SE13G20   29.93F
FLAG ISLAND    MOSUNNY   52  43  71 SE10G16   29.92F
INTL FALLS     MOSUNNY   52  42  69 SE14G21   29.99F
WASKISH        SUNNY     57  46  67 E13G20    29.94F
BIG FORK       SUNNY     55  43  62 SE8       29.98F
LONGVILLE      SUNNY     54  43  66 E9        29.95F
GRAND RAPIDS   SUNNY     54  41  62 E13       29.98F
CRANE LAKE     SUNNY     54  41  62 SE5       30.04F
ORR            SUNNY     54  39  58 SE8       29.99F
COOK           SUNNY     54  43  66 SE7       30.02F
WALKER         FAIR      52  41  68 SE6       29.93F
$$
MNZ012-019>021-037-302000-
   Northeast Minnesota

CITY           SKY/WX    TMP DP  RH WIND       PRES   REMARKS
DULUTH         CLOUDY    47  40  76 E21G26    30.04F
ELY            SUNNY     52  39  62 SE8       30.05F
HIBBING        SUNNY     55  41  59 SE15G21   30.01F
EVELETH        SUNNY     52  41  66 E9G17     30.03F
DULUTH HARBOR  CLOUDY    50  45  81 NE18      30.07F
TWO HARBORS    CLOUDY    46  39  76 E13G20    30.06F
SILVER BAY     SUNNY     45  43  93 NE9       30.08F
GRAND MARAIS     N/A     49  38  65 E10       30.12F
G MARAIS ARPRT SUNNY     48  34  57 SE9       30.10F
$$
MNZ029>031-032-039>041-046>048-054>057-064-302000-
   West Central Minnesota

CITY           SKY/WX    TMP DP  RH WIND       PRES   REMARKS
FERGUS FALLS   PTSUNNY   57  43  58 SE15G25   29.83F
WHEATON        LGT RAIN  52  45  76 SE24G30   29.81F
MORRIS         CLOUDY    55  46  71 SE18G29   29.83F
ALEXANDRIA     PTSUNNY   52  43  71 E21       29.88F
ELBOW LAKE     CLOUDY    54  45  71 SE16G24   29.82F
WADENA         PTSUNNY   54  43  66 SE18G25   29.88F
GLENWOOD       CLOUDY    54  45  71 E18G24    29.88F
APPLETON       CLOUDY    54  45  71 SE21G28   29.83F
BENSON         CLOUDY    54  45  71 SE20G28   29.87F
ORTONVILLE     LGT RAIN  48  45  87 SE17G26   29.81F
MADISON        CLOUDY    55  48  76 SE16G23   29.83F
WILLMAR        PTSUNNY   55  43  62 SE20G25   29.91S
$$
MNZ033>034-036-042>043-049>051-058-059-302000-
   Central Minnesota

CITY           SKY/WX    TMP DP  RH WIND       PRES   REMARKS
ST CLOUD       PTSUNNY   56  42  59 SE10      29.96F
SAUK CENTRE    FAIR      52  43  71 E14G22    29.90F
PAYNESVILLE    CLOUDY    50  42  74 NE12G21   29.91F
AITKIN         SUNNY     55  45  67 E8        29.97F
PINE RIVER     MOSUNNY   54  45  71 E10G21    29.98F
BRAINERD       MOSUNNY   49  42  77 SE12G20   29.97F
STAPLES        PTSUNNY   54  43  66 E10G17    29.92F
LONG PRAIRIE   CLOUDY    50  43  76 E16       29.91F
LITTLE FALLS   PTSUNNY   52  41  66 E13       29.95F
LITCHFIELD     CLOUDY    54  46  76 E16       29.92F
BUFFALO        PTSUNNY   55  42  62 E13       29.97F
MAPLE LAKE     PTSUNNY   54  46  73 E13       29.96F
$$
MNZ037-044-045-052-053-302000-
   East Central Minnesota

CITY           SKY/WX    TMP DP  RH WIND       PRES   REMARKS
PRINCETON      PTSUNNY   55  43  62 E12       29.98F
MORA           MOSUNNY   50  41  71 E9        30.02F
CAMBRIDGE      MOSUNNY   55  43  62 E9        29.98F
RUSH CITY      MOSUNNY   53  42  67 E6        30.01F
MOOSE LAKE     SUNNY     54  41  62 E7        30.00F
HINCKLEY       FAIR      52  43  71 E5        30.01F
CLOQUET        CLOUDY    48  41  76 E12G17    30.03F
MCGREGOR       SUNNY     54  43  66 E12       30.00F
$$
MNZ071>073-080-081-089-090-097-098-302000-
   Southwest Minnesota

CITY           SKY/WX    TMP DP  RH WIND       PRES   REMARKS
MONTEVIDEO     CLOUDY    54  46  76 SE18      29.86F
GRANITE FALLS  CLOUDY    56  47  71 E22       29.88F
CANBY          LGT RAIN  52  49  91 SE13G20   29.82F
MARSHALL       PTSUNNY   57  48  72 SE18G25   29.83F
REDWOOD FALLS  CLOUDY    56  47  71 SE15G24   29.89F
OLIVIA         CLOUDY    54  45  71 SE14G23   29.90S
PIPESTONE      LGT RAIN  59  55  88 SE9       29.79F
WINDOM         CLOUDY    59  52  77 SE13      29.88F
WORTHINGTON    CLOUDY    61  54  77 SE15      29.85F
JACKSON        CLOUDY    59  52  77 SE14G20   29.89F
TRACY          CLOUDY    59  52  78 SE17      29.85F
SLAYTON        CLOUDY    59  53  80 SE15G23   29.84F
$$
MNZ065>067-074>077-082>085-091>093-302000-
   South Central Minnesota

CITY           SKY/WX    TMP DP  RH WIND       PRES   REMARKS
MANKATO        CLOUDY    55  45  67 SE15G22   29.94F
NEW ULM        CLOUDY    55  48  76 SE12G20   29.91F
ST JAMES       PTSUNNY   63  50  63 SE13G18   29.91F
FAIRMONT       PTSUNNY   63  50  63 SE14      29.90F
GLENCOE        CLOUDY    55  42  62 E16       29.93F
FARIBAULT      CLOUDY    55  45  67 E8        29.97F
OWATONNA       CLOUDY    55  45  67 E14       29.96F
WASECA         CLOUDY    54  43  66 E13       29.96F
ALBERT LEA     CLOUDY    57  50  77 SE9G18    29.95F
$$
MNZ078>079-086>088-094>096-302000-
   Southeast Minnesota

CITY           SKY/WX    TMP DP  RH WIND       PRES   REMARKS
ROCHESTER      CLOUDY    54  46  74 E10       30.00F
RED WING       PTSUNNY   55  43  62 SE10      30.00F
STANTON        CLOUDY    56  44  64 E9        29.97F
DODGE CENTER   CLOUDY    55  45  67 SE13      29.98F
WINONA         MOSUNNY   52  43  71 E7        30.04F
AUSTIN         CLOUDY    55  48  76 SE10      29.97F
PRESTON        CLOUDY    53  44  72 SE9       30.01F
$$
ABBREVIATIONS USED IN REMARKS
   TC - TEMPERATURES IN CELSIUS
  WCI - WIND CHILL INDEX
   HX - HEAT INDEX
  VSB - VISIBILITY
$$


USA.gov is the U.S. government's official web portal to all federal, state and local government web resources and services.